"Pseudo-MPEC" for P10Uh2O

Created 2019 Nov 9 8:07:23 UT using Find_Orb

Click here for an explanation of pseudo-MPECs

 
 Astrometry: 
     P10Uh2O  C2019 11 08,C3-wN5*-C@aD_ibO?Z1U-OqR4!X7i?Astrometry4L1P;o8^iy\F51
     P10Uh2O  C2019 11 08Ohy$.Yj=@?4uK#vredacted;):eHNAt9KjbcNQb1+0_mCO0dHx_sF51
     P10Uh2O  C2019 11 08!5VoT%wuSjFCRdL^71G#$D,h.TgG'B\^86ciepZfnfP@JVWihXFFF51
     P10Uh2O  C2019 11 08S5eaV2ixIMj9jZ%`:clickkThereZAN+Q_Ns=t@tM/9ieKX=N+.hF51
     P10Uh2O KC2019 11 08.98395803 55 52.81 +35 41 08.4    ~B907 18.4 GVNEOCPJ95
     P10Uh2O KC2019 11 08.98706803 55 54.13 +35 41 02.4    ~B907 18.6 GVNEOCPJ95
     P10Uh2O KC2019 11 08.99023903 55 55.49 +35 40 55.7    ~B907 18.4 GVNEOCPJ95
     P10Uh2O KC2019 11 09Ohm5\8DYL!d2O^)$$#+gtRBRoJ7W8fE_V[wTx0Sul]Yva7forSl$H36
     P10Uh2O  C2019 11 09.23791903 57 54.62 +35 33 10.4    ~B96M 18.1 GVNEOCPH01
     P10Uh2O  C2019 11 09.24426603 57 57.10 +35 32 59.4    ~B96M 18.2 GVNEOCPH01
     P10Uh2O  C2019 11 09.25454203 58 01.08 +35 32 41.3    ~B96M 18.3 GVNEOCPH01
     P10Uh2O KC2019 11 09Jg0lsYexplanationp17/w6n-rFaJVhWQ4:d0!!dHY4iCZbWPMH9H36
     P10Uh2O  C2019 11 09.25879103 58 02.72 +35 32 33.7    ~B96M 18.2 GVNEOCPH01
     P10Uh2O KC2019 11 09%^b20.tZd8pP,Zab6%0ImyGM;$WiLqndYugT/+p!U!.jpZA)hY*oH36

Station data:
(F51) Pan-STARRS 1, Haleakala  (N20.707235 W156.255910)  US/Hawaii.
   Observers N. Primak, A. Schultz, S. Watters, J. Thiel, T. Goggia. Measurer
   PS1 Science Consortium. 1.8-m Ritchey-Chrétien + CCD.
(H01) Magdalena Ridge Observatory, Socorro  (N33.984833 W107.189333)  US/New
   Mexico.  Observers W. H. Ryan, E. V. Ryan. Measurer W. H. Ryan. 2.4-m
   f/8.9 reflector + CCD.
(H36) Sandlot Observatory, Scranton  (N38.797693 W95.706400)  US/Kansas.
   Observer G. Hug. 0.56-m reflector + CCD.
(J95) Great Shefford  (N51.474969 W1.447003)  UK.  Observer P. Birtwhistle.
   0.40-m f/6.0 Schmidt-Cassegrain + CCD.

Orbital elements:  P10Uh2O
   Perihelion 2019 Oct 9.162554 +/- 0.0131 TT =  3:54:04 (JD 2458765.662554)
Epoch 2019 Nov  9.0 TT = JDT 2458796.5   Earth MOID: 0.0062   Ma: 0.0063
M   9.57258432 +/- 0.06             (J2000 ecliptic)          AutoNEOCP
n   0.31042078 +/- 0.00198          Peri.  345.56389 +/- 0.11
a   2.16024091 +/- 0.0092           Node    22.97386 +/- 0.08
e   0.5568375 +/- 0.00197           Incl.    1.78081 +/- 0.007
P   3.18                   H 23.8   G  0.15   U  8.6  
q 0.95733763 +/- 0.000216    Q 3.36314420 +/- 0.0187
From 14 observations 2019 Nov. 8-9 (20.3 hr); mean residual 0".14
Residuals in arcseconds: 
191108 F51  .03+  .01-    191108 J95  .06-  .18+    191109 H01  .01-  .18+    
191108 F51  .00   .00     191108 J95  .05+  .29-    191109 H36  .11-  .15-    
191108 F51  .00   .01-    191109 H36  .20-  .07+    191109 H01  .02+  .15+    
191108 F51  .03-  .01+    191109 H01  .03-  .13+    191109 H36  .28+  .43-    
191108 J95  .02+  .10+    191109 H01  .02+  .18+    

Ephemerides (geocentric):
Date (UTC) HH   RA              Dec         delta   r     elong  mag " sig PA
---- -- -- --  -------------   -----------  ------ ------ -----  --- ---- ---
2019 11 09 08  03 58 31.004   +35 30 07.45  .05250 1.0390 156.6 18.6 .187 143
2019 11 09 09  03 58 49.356   +35 28 44.93  .05272 1.0392 156.6 18.6 .191 145
2019 11 09 10  03 59 07.534   +35 27 22.87  .05295 1.0394 156.6 18.6 .196 146
2019 11 09 11  03 59 25.540   +35 26 01.28  .05318 1.0396 156.6 18.6 .200 148
2019 11 09 12  03 59 43.376   +35 24 40.14  .05341 1.0398 156.6 18.6 .204 149
2019 11 09 13  04 00 01.044   +35 23 19.45  .05364 1.0400 156.6 18.6 .209 150
2019 11 09 14  04 00 18.548   +35 21 59.22  .05387 1.0402 156.6 18.6 .213 152
2019 11 09 15  04 00 35.888   +35 20 39.43  .05410 1.0404 156.6 18.7 .217 153
2019 11 09 16  04 00 53.067   +35 19 20.09  .05433 1.0406 156.6 18.7 .221 155
2019 11 09 17  04 01 10.087   +35 18 01.19  .05456 1.0408 156.7 18.7 .224 156
2019 11 09 18  04 01 26.950   +35 16 42.73  .05479 1.0410 156.7 18.7 .228 157
2019 11 09 19  04 01 43.658   +35 15 24.70  .05502 1.0412 156.7 18.7 .232 159
2019 11 09 20  04 02 00.212   +35 14 07.10  .05525 1.0414 156.7 18.7 .235 160
2019 11 09 21  04 02 16.616   +35 12 49.93  .05548 1.0416 156.7 18.7 .239 161
2019 11 09 22  04 02 32.870   +35 11 33.18  .05571 1.0418 156.7 18.7 .242 163
2019 11 09 23  04 02 48.976   +35 10 16.86  .05594 1.0421 156.7 18.7 .245 164
2019 11 10 00  04 03 04.937   +35 09 00.96  .05617 1.0423 156.7 18.7 .249 165
2019 11 10 01  04 03 20.754   +35 07 45.47  .05640 1.0425 156.7 18.7 .252 167
2019 11 10 02  04 03 36.428   +35 06 30.39  .05663 1.0427 156.8 18.7 .255 168
2019 11 10 03  04 03 51.962   +35 05 15.72  .05686 1.0429 156.8 18.8 .258 169
2019 11 10 04  04 04 07.358   +35 04 01.46  .05709 1.0431 156.8 18.8 .262 170
2019 11 10 05  04 04 22.616   +35 02 47.60  .05732 1.0433 156.8 18.8 .265 172
2019 11 10 06  04 04 37.739   +35 01 34.15  .05755 1.0435 156.8 18.8 .268 173
2019 11 10 07  04 04 52.728   +35 00 21.09  .05778 1.0437 156.8 18.8 .271 174
2019 11 10 08  04 05 07.585   +34 59 08.42  .05801 1.0439 156.8 18.8 .274 175
2019 11 10 09  04 05 22.312   +34 57 56.14  .05824 1.0441 156.8 18.8 .277 177
2019 11 10 10  04 05 36.909   +34 56 44.25  .05847 1.0443 156.9 18.8 .281 178
2019 11 10 11  04 05 51.379   +34 55 32.75  .05871 1.0446 156.9 18.8 .284 179
2019 11 10 12  04 06 05.723   +34 54 21.63  .05894 1.0448 156.9 18.8 .287   0
2019 11 10 13  04 06 19.942   +34 53 10.88  .05917 1.0450 156.9 18.8 .290   2
2019 11 10 14  04 06 34.038   +34 52 00.52  .05940 1.0452 156.9 18.9 .294   3
2019 11 10 15  04 06 48.012   +34 50 50.52  .05963 1.0454 156.9 18.9 .297   4
2019 11 10 16  04 07 01.866   +34 49 40.90  .05986 1.0456 156.9 18.9 .300   5
2019 11 10 17  04 07 15.602   +34 48 31.64  .06010 1.0458 157.0 18.9 .304   7
2019 11 10 18  04 07 29.219   +34 47 22.75  .06033 1.0460 157.0 18.9 .307   8
2019 11 10 19  04 07 42.721   +34 46 14.22  .06056 1.0462 157.0 18.9 .310   9
2019 11 10 20  04 07 56.108   +34 45 06.05  .06079 1.0465 157.0 18.9 .314  10
2019 11 10 21  04 08 09.381   +34 43 58.23  .06102 1.0467 157.0 18.9 .318  11
2019 11 10 22  04 08 22.542   +34 42 50.77  .06126 1.0469 157.0 18.9 .321  12
2019 11 10 23  04 08 35.592   +34 41 43.66  .06149 1.0471 157.0 18.9 .325  14
2019 11 11 00  04 08 48.532   +34 40 36.90  .06172 1.0473 157.1 18.9 .329  15
2019 11 11 01  04 09 01.364   +34 39 30.48  .06195 1.0475 157.1 18.9 .332  16
2019 11 11 02  04 09 14.089   +34 38 24.40  .06219 1.0477 157.1 19.0 .336  17
2019 11 11 03  04 09 26.707   +34 37 18.67  .06242 1.0479 157.1 19.0 .340  18
2019 11 11 04  04 09 39.221   +34 36 13.27  .06265 1.0482 157.1 19.0 .344  19
2019 11 11 05  04 09 51.631   +34 35 08.20  .06289 1.0484 157.1 19.0 .348  20
2019 11 11 06  04 10 03.938   +34 34 03.47  .06312 1.0486 157.2 19.0 .352  21
2019 11 11 07  04 10 16.144   +34 32 59.06  .06335 1.0488 157.2 19.0 .357  22